Content
SEND FEEDBACK

Daily
Averages
Monthly
Summary
United States of America

BOX ELDER, SOUTH DAKOTA


Home > North America > United States > South Dakota
Elevation: 3170 feet     Latitude: 44 09N     Longitude: 103 06W

WEATHER
 
SELECT A DAY
Number of Records: 204,184;   Date Range: 1/1/95 - 8/28/14
 
SHARE

PRINT THIS DATA

[ ← Previous Day ]
WEATHER ALMANAC - JULY 23, 2013
[ Next Day → ]
[ °C ]   °F
Weather ElementAverageHighLow
Temperature71.5 °F85.1 °F (5:58 pm)59.2 °F (4:58 am)
Dewpoint59.1 °F63 °F (7:58 pm)54.9 °F (5:58 pm)
Humidity67.7 %91 % (4:58 am)35 % (5:58 pm)
Barometer29.99 in30.04 in (8:08 am)29.91 in (4:58 am)
Wind Speed8.4 mph23 mph (12:35 am)
Wind Gust36.8 mph (12:42 am)
Weather ElementAverage
Visibility9.6 mi
Wind DirectionESE (97.7 °)

Weather ElementTotal
Precipitation0.07 in
Cooling Degree Days7.2 (Base 65)
Growing Degree Days22.2 (Base 50)
Averaged from 35 records on July 23, 2013
WEATHER CONDITIONS BREAKOUT
WIND DIRECTION BREAKOUT
WEATHER BY HOUR - JULY 23, 2013
[ °C ]   °F
Local TimeTemperatureDewpointHumidityBarometerVisibilityWind DirectionWind SpeedGust SpeedPrecipitationEventsConditions
12:29 AM71.6 °F57.2 °F60 %30.00 in10.0 miVariable6.9 mphRain-ThunderstormLight Rain
12:33 AM71.6 °F57.2 °F60 %30.00 in9.0 miNE (50°)11.5 mphRain-ThunderstormThunderstorms and Rain
12:35 AM71.6 °F59.0 °F64 %30.00 in6.0 miNE (50°)23.0 mph27.6 mphRain-ThunderstormLight Rain
12:42 AM69.8 °F60.8 °F73 %30.01 in6.0 miNE (40°)16.1 mph36.8 mphRain-ThunderstormLight Thunderstorms and Rain
12:43 AM69.8 °F60.8 °F73 %30.02 in6.0 miNE (40°)16.1 mph36.8 mphRain-ThunderstormLight Thunderstorms and Rain
12:44 AM68.0 °F60.8 °F78 %30.03 in9.0 miNE (40°)20.7 mph36.8 mphRainLight Rain
12:58 AM66.6 °F59.2 °F77 %29.92 in10.0 miENE (60°)23.0 mph28.8 mph0.06 inRainLight Rain
1:02 AM64.4 °F59.0 °F83 %30.01 in10.0 miEast (80°)12.7 mph27.6 mphRainLight Rain
1:23 AM62.6 °F57.2 °F82 %30.00 in10.0 miEast (80°)13.8 mphScattered Clouds
1:58 AM62.6 °F57.7 °F84 %29.92 in10.0 miEast (100°)13.8 mph0.01 inClear
2:58 AM61.0 °F57.7 °F89 %29.92 in10.0 miSouth (180°)6.9 mphClear
3:58 AM60.8 °F57.4 °F88 %29.92 in10.0 miSSW (210°)5.8 mphClear
4:58 AM59.2 °F56.5 °F91 %29.91 in10.0 miWest (260°)2.3 mphClear
5:58 AM61.7 °F57.6 °F86 %29.95 in10.0 miENE (60°)5.8 mphScattered Clouds
6:58 AM61.5 °F57.9 °F88 %29.95 in10.0 miEast (90°)8.1 mphClear
7:58 AM63.3 °F58.5 °F84 %29.99 in10.0 miENE (70°)9.2 mphClear
8:08 AM62.6 °F59.0 °F88 %30.04 in10.0 miEast (80°)8.1 mphPartly Cloudy
8:58 AM64.2 °F59.5 °F85 %30.00 in10.0 miSE (140°)5.8 mphClear
9:58 AM68.5 °F60.3 °F75 %30.01 in10.0 miSSE (160°)6.9 mphClear
10:58 AM72.0 °F60.4 °F67 %30.01 in10.0 miSouth (180°)5.8 mphMostly Cloudy
11:58 AM76.3 °F62.2 °F62 %29.99 in10.0 miVariable5.8 mphScattered Clouds
12:58 PM79.5 °F61.3 °F54 %30.00 in10.0 miVariable3.5 mphClear
1:58 PM82.6 °F59.5 °F45 %29.99 in10.0 miVariable3.5 mphScattered Clouds
2:58 PM83.8 °F59.7 °F44 %29.99 in10.0 miENE (60°)6.9 mphMostly Cloudy
3:58 PM84.0 °F59.2 °F43 %29.99 in10.0 miVariable2.3 mphPartly Cloudy
4:58 PM84.2 °F55.2 °F37 %29.99 in10.0 miNE (40°)2.3 mphPartly Cloudy
5:58 PM85.1 °F54.9 °F35 %29.97 in10.0 miVariable2.3 mphClear
6:10 PM84.2 °F55.4 °F37 %30.03 in10.0 miWest (280°)4.6 mphLight Drizzle
6:20 PM82.4 °F57.2 °F42 %30.03 in10.0 miVariable3.5 mphScattered Clouds
6:58 PM82.4 °F60.6 °F48 %29.97 in10.0 miSSE (160°)11.5 mph0.00 inScattered Clouds
7:58 PM78.3 °F63.0 °F59 %29.99 in10.0 miSouth (190°)5.8 mphClear
8:58 PM74.3 °F62.4 °F66 %30.00 in10.0 miSouth (190°)4.6 mphClear
9:58 PM72.3 °F61.9 °F70 %30.01 in10.0 miSouth (180°)5.8 mphClear
10:58 PM69.6 °F61.9 °F76 %30.03 in9.0 miSouth (170°)4.6 mphClear
11:58 PM69.3 °F61.9 °F77 %30.03 in10.0 miSouth (180°)3.5 mphClear
Hourly data recorded from KRCA, located miles away from Box Elder, South Dakota







STORIES FROM OUR PARTNERS